SCOUT B R/B, 3341

Orbit data source: Space-Track

SCOUT B R/B, 3341 is space debris in LEO originally from a launch on Thu, 08 Aug 1968 UTC launched from the Air Force Western Test Range (AFWTR). Debris objects in space refer to the collection of defunct objects orbiting the Earth. Examples of debris include non-operational satellites, rocket bodies, and fragments generated from explosions, collisions, or faulty payload assembly.

Loading next visibility...
Identifier
3341, 1968-066C
Orbit
LEO
Country
Flag of USUS
Related business
Manufacturer
UTC
Mission
Spacecraft
Bus & Motor
FW4, Unknown motor
Mass
47 kg wet, 47 kg dry
Launch date (UTC)
1968-08-08 (57 years ago)
Launch vehicle
Unknown
Launch site
Air Force Western Test Range (AFWTR)
Object type
Payload
Rocket body
Debris
Shape & HBR
Unknown
Radar Cross Section
Medium (>0.1 m² and <1 m²)

Expand to show TLE details & history
Last TLE update: 10 hours ago

TLE from 10 hours ago
0 SCOUT B R/B
1 03341U 68066C   25293.94055836  .00000659  00000-0  69285-3 0  9991
2 03341  80.6609 235.7803 1117187 337.6104  17.9593 12.26078817534198
Epoch: 2025-10-20T22:34Z
TLE epoch observation values (Epoch: 2025-10-20T22:34:24.242Z)
Latitude
-0.00003°
Longitude
-132.45637°
Altitude
735.618 km
Speed
7.87 km/s
True Right ascension
15h 43m 07s
True Declination
0° 00' 00"
Sunlit
Object was in daylight at epoch
Visualization orbit readout
Latitude
Unknown
Longitude
Unknown
Altitude
Unknown
Speed
Unknown
Apparent Right ascension
Unknown
Apparent Declination
Unknown
Sunlit
N/A
Visualization observer readout
Local Sidereal Time
03:21:30
Azimuth
Unknown
Elevation
Unknown
Doppler factor
Unknown
Orbital elements
Apogee altitude
2,450.816 km
Perigee altitude
676.34 km
Semi-major axis
7,941.715 km
Eccentricity
0.11172
Inclination
80.6609°
RAAN
235.7803°
Arg. of periapsis
337.6104°
True anomaly
22.50219°
Mean anomaly
17.9593°
Eccentric anomaly
20.16599°
Mean motion
3.0667 °/min
Orbital period
117.39 mins
BSTAR
0.00069285
Loading maneuver chart data...
Computing Atmospheric mass density...
Loading historical data...
Loading historical data...
Loading historical data...
Loading historical data...
Loading historical data...
Loading historical data...
Loading historical data...

Documentation

Showing up to 5 results
|